User: anonymous   Login
Location: Caltech
(34.1382°N, 118.1253°W)
Time: 22:38:36
(UTC-07:00)
Language:

Aureole 3 Rocket - Orbit

View from above orbital plane
View from above orbital plane
View from above satellite
View from above satellite

Ground track
Ground track

The orbit data is extracted from the following two-line orbital elements,

1 12849U 81094B   17179.53136608 +.00000475 +00000-0 +41076-4 0  9991
2 12849 082.4914 158.0536 0903832 024.6344 339.5300 13.50154896743470
Epoch (UTC): 28 June 2017 12:45:10
Eccentricity: 0.0903832
inclination: 82.4914°
perigee height: 398 km
apogee height: 1745 km
right ascension of ascending node: 158.0536°
argument of perigee: 24.6344°
revolutions per day: 13.50154896
mean anomaly at epoch: 339.5300°
orbit number at epoch: 74347

The dashed part of the orbit path shows where the satellite is in the earth's shadow,  

DLR